sat.trackr.live / text

‹ back to catalog

IRIDIUM 123

NORAD 42804 · 2017-039B

PAYLOAD ACTIVE UNKNOWN

§ Identity

Operator
Country
US
Launch date
2017-06-25
Launch site
AFWTR
Launch vehicle
Mass (kg)
RCS (m²)

Purposes: comms

External: N2YO · Heavens-Above · Gunter

§ Orbital elements

Epoch: 2026-05-25T01:10:26.908320Z

Period
100.40 min
Inclination
86.3980°
Eccentricity
0.0002151
Mean motion
14.34217525 rev/d
Perigee alt
776.1 km
Apogee alt
779.2 km
Semi-major
7,155.8 km
B*
-7.9559e-6
RAAN
3.3107°
Arg perigee
82.2162°
Mean anomaly
277.9278°
Rev number
46,663

§ Raw data

IRIDIUM 1231 42804U 17039B   26145.04892255 -.00000003  00000+0 -79559-5 0  99952 42804  86.3980   3.3107 0002151  82.2162 277.9278 14.34217525466639

JSON: /api/v1/satellites/42804 · /tle

For live sub-satellite position, see the globe view (requires WebGL).

§ Visibility from observer

Set your observer location to see the next 7 days of passes ≥ 10°. The values pass through the URL so the page stays shareable.

No JS? Fill the form by hand. The geolocation button needs JavaScript.